Regional Weather Roundup
Issued by NWS Little Rock, AR

Home | Current Version | Previous Version | Text Only | Print | Product List | Glossary Off
Versions: 1 2 3 4 5 6 7 8 9 10 11 12 13 14 15 16 17 18 19 20 21 22 23 24 25 26 27 28 29 30 31 32 33 34 35 36 37 38 39 40 41 42 43 44 45 46 47 48 49 50

000
ASUS44 KLZK 281605
RWRLZK

WEATHER ROUNDUP FOR ARKANSAS
NATIONAL WEATHER SERVICE LITTLE ROCK AR
1100 AM CDT THU APR 28 2016

NOTE: "FAIR" INDICATES FEW OR NO CLOUDS BELOW 12,000 FEET WITH NO
SIGNIFICANT WEATHER AND/OR OBSTRUCTIONS TO VISIBILITY.

ARZ001-003-010-029-281700-
NORTHWEST ARKANSAS

CITY           SKY/WX    TMP DP  RH WIND       PRES   REMARKS
FAYETTEVILLE   SUNNY     65  43  44 N3        29.97F
FORT SMITH     SUNNY     67  42  40 CALM      29.96R
HARRISON       SUNNY     66  42  41 W12G18    29.97R
BENTONVILLE    SUNNY     63  41  45 CALM      29.99S
ROGERS         SUNNY     63  42  46 VRB3      29.98R
SILOAM SPGS    SUNNY     63  39  42 CALM      29.99R
HIGHFILL       SUNNY     65  43  44 CALM      29.97S
SPRINGDALE     SUNNY     64  41  42 CALM      29.99S
$$

ARZ004-005-016-281700-
NORTH CENTRAL ARKANSAS

CITY           SKY/WX    TMP DP  RH WIND       PRES   REMARKS
BATESVILLE     SUNNY     70  46  43 W9        29.96R
FLIPPIN        SUNNY    N/A N/A N/A W12       29.92S
MTN HOME       SUNNY     66  43  43 VRB6      29.94R
$$

ARZ040-041-281700-
WEST CENTRAL ARKANSAS

CITY           SKY/WX    TMP DP  RH WIND       PRES   REMARKS
MENA           SUNNY     73  48  40 NE3       29.96S
MOUNT IDA      SUNNY     72  54  53 S3        29.94R
$$

ARZ009-017-025-026-028-281700-
NORTHEAST ARKANSAS

CITY           SKY/WX    TMP DP  RH WIND       PRES   REMARKS
CORNING          N/A     70  46  43 W9        29.93R
JONESBORO      SUNNY     73  52  47 W9        29.94R
NEWPORT        SUNNY     72  49  44 NW5       29.96R
WALNUT RIDGE   SUNNY     70  46  43 W10       29.94R
BLYTHEVILLE    SUNNY     75  52  44 NW8       29.92R
$$

ARZ022-023-033-042-044-281700-
CENTRAL ARKANSAS

CITY           SKY/WX    TMP DP  RH WIND       PRES   REMARKS
LITTLE ROCK    MOSUNNY   76  53  44 VRB3      29.94R
N LITTLE ROCK    N/A     73  56  55 N3        29.93R
JACKSONVILLE   SUNNY     73  54  51 VRB3      29.94R
SEARCY         SUNNY     72  53  51 N9        29.96S
HOT SPRINGS    SUNNY     75  54  47 S7        29.95R
RUSSELLVILLE   SUNNY     71  49  45 W6        29.95S
$$

ARZ036-281700-
EAST ARKANSAS

CITY           SKY/WX    TMP DP  RH WIND       PRES   REMARKS
WEST MEMPHIS   SUNNY     76  53  44 N7        29.91S
$$

ARZ050-053-066-070-073-281700-
SOUTHWEST ARKANSAS

CITY           SKY/WX    TMP DP  RH WIND       PRES   REMARKS
ARKADELPHIA    FAIR      77  62  59 NE7       29.96R
CAMDEN         SUNNY     77  54  44 E5        29.94R
TEXARKANA      SUNNY     74  56  53 E7        29.94R
EL DORADO      SUNNY     77  54  44 NE9       29.94R
DE QUEEN       SUNNY     74  57  55 E6        29.92R
$$

ARZ056-057-069-281700-
SOUTHEAST ARKANSAS

CITY           SKY/WX    TMP DP  RH WIND       PRES   REMARKS
PINE BLUFF     SUNNY     76  53  44 N5        29.94R
STUTTGART      SUNNY     73  55  53 N8        29.95R
MONTICELLO     SUNNY     78  59  51 E9        29.93R

$$





USA.gov is the U.S. government's official web portal to all federal, state and local government web resources and services.